STARLINK-35293, 66012

Orbit data source: Space-Track

STARLINK-35293, 66012 is a payload satellite owned by SpaceX/Seattle (US) in LEO that was launched on Thu, 16 Oct 2025 UTC via an FALCON 9 launch vehicle from the Air Force Eastern Test Range (AFETR). Payload-class satellites include a variety of spacecraft equipped with specific instruments for various scientific and technological missions. These include communications satellites like Starlink; space stations such as the ISS; scientific satellites like the Hubble; Earth observation satellites from companies like Planet Labs, Umbra, and HawkEye 360; GPS; miniature CubeSats for education and research; and military/defense satellites.

Loading next visibility...
Identifier
66012, 2025-232H
Orbit
LEO
Country
Flag of USUS
Related business
Manufacturer
SpaceX/Seattle
Mission
Operational spacecraft
Bus & Motor
STARLINK V2MO, Unknown motor
Mass
575 kg wet, ~530 kg dry
Launch date (UTC)
2025-10-16 (1 week ago)
Launch vehicle
FALCON 9
Launch site
Air Force Eastern Test Range (AFETR)
Object type
Payload
Rocket body
Debris
Shape & HBR
Unknown shape, 17.7 m
Radar Cross Section
RCS unknown

Expand to show TLE details & history
Last TLE update: 8 hours ago

TLE from 8 hours ago
0 STARLINK-35293
1 66012U 25232H   25298.91668981 -.01432980  00000-0 -64528-2 0  9999
2 66012  53.1555  15.2359 0001091  62.6917  55.1208 15.86287431  1870
Epoch: 2025-10-25T22:00Z
TLE epoch observation values (Epoch: 2025-10-25T22:00:01.999Z)
Latitude
45.19702°
Longitude
142.07777°
Altitude
316.995 km
Speed
7.724 km/s
True Right ascension
09h 46m 30s
True Declination
45° 00' 49"
Sunlit
Object was in daylight at epoch
Visualization orbit readout
Latitude
Unknown
Longitude
Unknown
Altitude
Unknown
Speed
Unknown
Apparent Right ascension
Unknown
Apparent Declination
Unknown
Sunlit
N/A
Visualization observer readout
Local Sidereal Time
01:17:56
Azimuth
Unknown
Elevation
Unknown
Doppler factor
Unknown
Orbital elements
Apogee altitude
313.695 km
Perigee altitude
312.235 km
Semi-major axis
6,691.102 km
Eccentricity
0.00011
Inclination
53.1555°
RAAN
15.2359°
Arg. of periapsis
62.6917°
True anomaly
55.13106°
Mean anomaly
55.1208°
Eccentric anomaly
55.12593°
Mean motion
3.96549 °/min
Orbital period
90.78 mins
BSTAR
-0.0064528
Loading maneuver chart data...
Computing Atmospheric mass density...
Loading historical data...
Loading historical data...
Loading historical data...
Loading historical data...
Loading historical data...
Loading historical data...
Loading historical data...

Documentation

Showing up to 5 results
|